Regional Weather Roundup
Issued by NWS

Home | Current Version | Previous Version | Text Only | Print | Product List | Glossary Off
Versions: 1 2 3 4 5 6 7 8 9 10 11 12 13 14 15 16 17 18 19 20 21 22 23 24 25 26 27 28 29 30 31 32 33 34 35 36 37 38 39 40 41 42 43 44 45 46 47 48 49 50

000
ASUS43 KIND 300309
RWRIN

WEATHER ROUNDUP FOR INDIANA
NATIONAL WEATHER SERVICE INDIANAPOLIS IN
1100 PM EDT SAT APR 29 2017

NOTE: "FAIR" INDICATES FEW OR NO CLOUDS BELOW 12,000 FEET WITH NO
SIGNIFICANT WEATHER AND/OR OBSTRUCTIONS TO VISIBILITY.

* - STATION DOES NOT REPORT WEATHER SUCH AS PRECIPITATION OR FOG.

+ - STATION NOT QUALITY CONTROLLED BY THE NATIONAL WEATHER SERVICE.
    USE DATA WITH CAUTION...ESPECIALLY DEWPOINT AND RELATIVE
    HUMIDITY OBSERVATIONS.

INZ001>003-010>013-019-020-300400-
NORTHWEST INDIANA

CITY           SKY/WX    TMP DP  RH WIND       PRES   REMARKS
GARY /AIRPORT/ LGT RAIN  46  46 100 NE25G52   29.93F
KNOX *+        CLOUDY    46  32  57 E26G33    29.93F
LA PORTE +     TSTM      47  45  91 E29G36    29.95F
MICHIGAN CITY+ LGT SNOW  46  46 100 E10G22    29.94F
MONTICELLO +   RAIN      50  48  95 E12G18    29.92F
RENSSELAER +   RAIN      50  46  87 E21       29.94R
VALPARAISO     LGT RAIN  49  46  90 E26G38    29.94R FOG

$$

LMZ046-743>745-300400-
SOUTHERN LAKE MICHIGAN

STATION/POSITION TIME  TEMP    WIND        PRES    WAVE
                       AIR SEA DIR/SP/G            HT
                 (UTC) (F)     (DEG/KT/KT) (MB)    (FT)
BURNS HARBOR     0240   48      70/ 26/ 34 1013.2F
MICHIGAN CITY    0240   47      60/ 30/ 36   N/A
5NW MICH CITY    0250   47 47                N/A     9

$$

INZ004-005-014>016-021>024-300400-
NORTH CENTRAL INDIANA

CITY           SKY/WX    TMP DP  RH WIND       PRES   REMARKS
GOSHEN         CLOUDY    48  37  65 E16G29    30.02F
LOGANSPORT +   LGT RAIN  46  46 100 E15G25    29.98R
PERU/GRISSOM   TSTM      48  48 100 E15       30.01R FOG
ROCHESTER +    TSTM      50  46  87 E14G30    30.04R
SOUTH BEND     TSTM      47  41  80 E20G30    29.99F
WARSAW +       CLOUDY    46  36  66 E21G31    29.99F

$$

INZ006>009-017-018-025>027-300400-
NORTHEAST INDIANA

CITY           SKY/WX    TMP DP  RH WIND       PRES   REMARKS
ANGOLA *+      CLOUDY    46  34  61 E20       30.06F
AUBURN +       CLOUDY    45  36  70 E20G25    30.05F
FORT WAYNE     CLOUDY    46  40  79 E28G40    30.02F
HUNTINGTON +   CLOUDY   N/A N/A N/A E16G23    30.00F
KENDALLVILLE + RAIN      45  37  73 E18G26    30.04F

$$

INZ028-029-035-036-043>045-051>053-300400-
WEST CENTRAL INDIANA

CITY           SKY/WX    TMP DP  RH WIND       PRES   REMARKS
CRAWFORDSVL +  LGT RAIN  55  55 100 E12       29.95R
GREENCASTLE +  RAIN      61  61 100 CALM      29.95F
LAFAYETTE      LGT RAIN  53  53 100 SE9       29.94R FOG
TERRE HAUTE    LGT RAIN  63  61  93 E6        29.91F

$$

INZ030>032-037>040-046>048-054>057-064-065-300400-
CENTRAL INDIANA

CITY           SKY/WX    TMP DP  RH WIND       PRES   REMARKS
CP ATTERBURY + MOCLDY    68  64  88 SE7       29.92R
FISHERS *+     CLOUDY    54  54 100 N14G25    30.00R
FRANKFORT +    CLOUDY    54  53  95 E13       29.99F
GREENWOOD *+   CLOUDY    62  59  90 SE7       29.94R
INDIANAPOLIS   TSTM      60  57  89 N14       29.98R FOG
-EAGLE CREEK   TSTM      60  57  89 VRB7      29.97R VSB 3/4
KOKOMO +       TSTM      48  48 100 E8        30.05R FOG
MARION +       CLOUDY    46  45  93 E22G33    29.96F FOG
MT COMFORT *+  CLOUDY    57  55  94 E10       29.93F
SHELBYVILLE    TSTM      63  58  83 E16       29.92R
ZIONSVILLE +   TSTM      53  51  95 NE9       30.04R VSB 1

$$

INZ033-034-041-042-049-050-058-059-300400-
EAST CENTRAL INDIANA

CITY           SKY/WX    TMP DP  RH WIND       PRES   REMARKS
MUNCIE         LGT RAIN  51  49  92 E22G30    29.96F FOG
RICHMOND +     CLOUDY    55  55 100 E14       29.99F FOG

$$

INZ060-061-067>069-081>083-085>088-300400-
SOUTHWEST INDIANA

CITY           SKY/WX    TMP DP  RH WIND       PRES   REMARKS
EVANSVILLE     CLOUDY    70  61  73 NW14G26   29.93R
WASHINGTON +   HVY RAIN  67  59  75 NW13      29.92R

$$

INZ062-063-066-070>080-084-089>092-300400-
SOUTH CENTRAL AND SOUTHEAST INDIANA

CITY           SKY/WX    TMP DP  RH WIND       PRES   REMARKS
BEDFORD +      MOCLDY    72  66  83 SE5       29.91R
BLOOMINGTON    TSTM      73  64  73 NW10G21   29.93R
MADISON *+     CLOUDY    75  64  69 SE3       29.97R
NORTH VERNON + CLOUDY    73  66  78 SE9       29.93R
SEYMOUR +      MOCLDY    75  66  73 SE12      29.92R

$$





USA.gov is the U.S. government's official web portal to all federal, state and local government web resources and services.